{"data":{"norad_id":65482,"intl_designator":"2025-195AA","name":"STARLINK-35038","alt_names":[],"object_type":"PAYLOAD","status":"ACTIVE","operator":null,"country":"US","launch_date":"2025-09-03","launch_site_code":"AFETR","launch_vehicle":null,"mission":null,"orbit_class":"UNKNOWN","rcs_meters":null,"size_class":null,"mass_kg":null,"dimensions":null,"purposes":["comms"],"wikipedia_slug":null,"has_3d_model":false,"image_url":null,"decayed_at":null,"tle_current":{"epoch":"2026-05-24T17:59:59.866080Z","epoch_age_seconds":110793,"freshness":"FRESH","line1":"1 65482U 25195AA  26144.74999845  .00025209  00000+0  75446-3 0  9995","line2":"2 65482  53.1580 264.5237 0001133 127.6271 232.4834 15.34410546 41624","mean_motion":15.34410546,"eccentricity":0.0001133,"inclination_deg":53.158,"raan_deg":264.5237,"arg_perigee_deg":127.6271,"mean_anomaly_deg":232.4834,"bstar":0.00075446,"rev_number":4162,"period_min":93.847113065919,"perigee_km":461.89683180431,"apogee_km":463.44695910002,"semimajor_km":6840.8088954522,"source":"CELESTRAK","updated_at":"2026-05-25T13:38:20.837160Z"}}}